TimeCST,TemperatureF,Dew PointF,Humidity,Sea Level PressureIn,VisibilityMPH,Wind Direction,Wind SpeedMPH,Gust SpeedMPH,PrecipitationIn,Events,Conditions,WindDirDegrees,DateUTC
12:34 AM,17.6,10.4,73,29.60,8.0,WNW,18.4,26.5,0.00,Snow,Light Snow,290,2014-01-17 06:34:00
12:56 AM,16.0,10.9,81,29.68,9.0,WNW,18.4,-,0.00,Snow,Light Snow,290,2014-01-17 06:56:00
1:56 AM,15.1,10.0,80,29.69,9.0,WNW,15.0,-,0.00,Snow,Light Snow,290,2014-01-17 07:56:00
2:56 AM,14.0,9.0,80,29.71,9.0,WNW,15.0,-,0.00,Snow,Light Snow,290,2014-01-17 08:56:00
3:56 AM,14.0,9.0,80,29.73,9.0,West,16.1,-,0.00,Snow,Light Snow,280,2014-01-17 09:56:00
4:56 AM,12.9,9.0,84,29.74,8.0,West,15.0,-,0.00,Snow,Light Snow,280,2014-01-17 10:56:00
5:56 AM,12.9,9.0,84,29.76,7.0,West,13.8,-,0.00,Snow,Light Snow,280,2014-01-17 11:56:00
7:56 AM,14.0,10.0,84,29.78,9.0,West,11.5,-,0.00,Snow,Light Snow,280,2014-01-17 13:56:00
8:56 AM,15.1,10.9,84,29.81,9.0,West,11.5,-,0.00,Snow,Light Snow,280,2014-01-17 14:56:00
9:56 AM,17.1,12.0,81,29.82,7.0,West,8.1,-,0.00,Snow,Light Snow,280,2014-01-17 15:56:00
10:56 AM,19.0,14.0,81,29.83,9.0,West,10.4,-,0.00,Snow,Light Snow,280,2014-01-17 16:56:00
11:56 AM,21.0,16.0,81,29.82,9.0,WNW,11.5,-,0.00,Snow,Light Snow,290,2014-01-17 17:56:00
12:56 PM,23.0,18.0,81,29.82,7.0,WNW,8.1,-,0.00,Snow,Light Snow,300,2014-01-17 18:56:00
1:32 PM,24.8,19.4,80,29.76,2.5,WNW,8.1,-,0.00,Snow,Light Snow,300,2014-01-17 19:32:00
1:56 PM,24.1,19.9,84,29.84,2.5,NW,10.4,-,0.00,Snow,Light Snow,310,2014-01-17 19:56:00
2:08 PM,24.8,21.2,86,29.77,1.0,NW,9.2,-,0.00,Snow,Light Snow,310,2014-01-17 20:08:00
2:46 PM,24.8,21.2,86,29.78,0.8,NW,10.4,-,0.00,Snow,Light Snow,320,2014-01-17 20:46:00
2:56 PM,25.0,21.0,85,29.86,0.8,NNW,12.7,-,0.00,Snow,Light Snow,330,2014-01-17 20:56:00
3:11 PM,24.8,21.2,86,29.79,1.0,NNW,10.4,-,0.00,Snow,Light Snow,330,2014-01-17 21:11:00
3:36 PM,24.8,21.2,86,29.80,1.5,NNW,12.7,-,0.01,Snow,Light Snow,330,2014-01-17 21:36:00
3:56 PM,24.1,21.0,88,29.89,3.0,NNW,11.5,-,0.01,Snow,Light Snow,330,2014-01-17 21:56:00
4:56 PM,23.0,19.0,85,29.91,5.0,NNW,11.5,-,0.00,Snow,Light Snow,330,2014-01-17 22:56:00
5:36 PM,23.0,19.4,86,29.84,5.0,NNW,6.9,-,0.00,Snow,Light Snow,330,2014-01-17 23:36:00
5:56 PM,23.0,19.0,85,29.93,6.0,NNW,9.2,-,0.00,Snow,Light Snow,330,2014-01-17 23:56:00
6:08 PM,21.2,19.4,93,29.86,5.0,NNW,9.2,-,0.00,Snow,Light Snow,330,2014-01-18 00:08:00
6:20 PM,21.2,19.4,93,29.87,5.0,NNW,8.1,-,0.00,Snow,Light Snow,330,2014-01-18 00:20:00
6:56 PM,21.9,19.0,89,29.96,5.0,NW,8.1,-,0.00,Snow,Light Snow,320,2014-01-18 00:56:00
7:56 PM,21.9,17.1,82,29.96,6.0,NNW,6.9,-,0.00,Snow,Light Snow,340,2014-01-18 01:56:00
8:56 PM,21.0,15.1,78,29.96,9.0,North,6.9,-,0.00,Snow,Light Snow,350,2014-01-18 02:56:00
9:56 PM,19.9,14.0,78,29.96,10.0,NNW,9.2,-,0.00,,Overcast,340,2014-01-18 03:56:00
10:56 PM,19.0,12.9,77,29.96,10.0,NNW,6.9,-,N/A,,Overcast,340,2014-01-18 04:56:00
11:48 PM,17.6,12.2,79,29.87,9.0,NNW,11.5,-,0.00,Snow,Light Snow,340,2014-01-18 05:48:00
11:56 PM,18.0,12.0,78,29.94,10.0,North,9.2,-,0.00,,Overcast,350,2014-01-18 05:56:00